This is the latest recevied weather packets stored in our database for station/object KC1DMA. If no packets are shown the sender has not sent any weather packets the latest 10 day(s).
| Time | Temp. | Humidity | Pressure | Rain* | Wind** | Luminosity | Snow |
|---|---|---|---|---|---|---|---|
| 1777399010 | 20° C | 42% | 1021.7 hPa | - | - | 597 W/m² | - |
| 1777398706 | 18.89° C | 44% | 1021.9 hPa | - | - | 777 W/m² | - |
| 1777398403 | 18.89° C | 44% | 1022 hPa | - | - | 777 W/m² | - |
| 1777398099 | 18.89° C | 44% | 1022 hPa | - | - | 777 W/m² | - |
| 1777397797 | 18.89° C | 44% | 1022.1 hPa | - | - | 777 W/m² | - |
| 1777397492 | 18.89° C | 44% | 1021.9 hPa | - | - | 777 W/m² | - |
| 1777397188 | 18.89° C | 44% | 1022 hPa | - | - | 777 W/m² | - |
| 1777396886 | 18.33° C | 45% | 1022 hPa | - | - | 826 W/m² | - |
| 1777396581 | 18.33° C | 45% | 1022.2 hPa | - | - | 826 W/m² | - |
| 1777396279 | 18.33° C | 45% | 1022.3 hPa | - | - | 826 W/m² | - |
| 1777395975 | 19.44° C | 45% | 1022.1 hPa | - | - | 852 W/m² | - |
| 1777395675 | 17.78° C | 48% | 1022.1 hPa | - | - | 622 W/m² | - |
| 1777395371 | 17.78° C | 48% | 1022.2 hPa | - | - | 622 W/m² | - |
| 1777395070 | 17.78° C | 48% | 1022.3 hPa | - | - | 622 W/m² | - |
| 1777394766 | 17.78° C | 48% | 1022.3 hPa | - | - | 622 W/m² | - |
| 1777394462 | 17.78° C | 48% | 1022.3 hPa | - | - | 622 W/m² | - |
| 1777394158 | 17.22° C | 48% | 1022.5 hPa | - | - | 764 W/m² | - |
| 1777393854 | 17.22° C | 48% | 1022.5 hPa | - | - | 764 W/m² | - |
| 1777393553 | 17.22° C | 48% | 1022.4 hPa | - | - | 764 W/m² | - |
| 1777393249 | 17.22° C | 48% | 1022.5 hPa | - | - | 764 W/m² | - |
| 1777392946 | 17.22° C | 48% | 1022.3 hPa | - | - | 764 W/m² | - |
| 1777392642 | 17.22° C | 48% | 1022.4 hPa | - | - | 764 W/m² | - |
| 1777392338 | 17.78° C | 45% | 1022.6 hPa | - | - | 763 W/m² | - |
| 1777392038 | 17.78° C | 46% | 1022.5 hPa | - | - | 736 W/m² | - |
| 1777391733 | 17.78° C | 47% | 1022.6 hPa | - | - | 754 W/m² | - |
* Rain since midnight (hover to see other rain measurements)
** Current wind speed in m/s (hover to see current wind gust speed)